This is the latest recevied weather packets stored in our database for station/object WX5HOT. If no packets are shown the sender has not sent any weather packets the latest 10 day(s).
| Time | Temp. | Humidity | Pressure | Rain* | Wind** | Luminosity | Snow |
|---|---|---|---|---|---|---|---|
| 1778112589 | 8.89° C | 99% | 1064.3 hPa | 0 mm | - | 28 W/m² | - |
| 1778112285 | 8.89° C | 99% | 1064.4 hPa | 0 mm | - | 30 W/m² | - |
| 1778111980 | 8.89° C | 99% | 1064.6 hPa | 0 mm | - | 45 W/m² | - |
| 1778111678 | 8.89° C | 99% | 1064.7 hPa | 0 mm | - | 41 W/m² | - |
| 1778111373 | 8.89° C | 99% | 1064.8 hPa | 0 mm | - | 44 W/m² | - |
| 1778111072 | 8.89° C | 99% | 1064.9 hPa | 0 mm | - | 35 W/m² | - |
| 1778110769 | 8.89° C | 99% | 1065.3 hPa | 0 mm | - | 35 W/m² | - |
| 1778110465 | 8.89° C | 99% | 1065.1 hPa | 0 mm | - | 57 W/m² | - |
| 1778110162 | 8.89° C | 99% | 1065.1 hPa | 0 mm | - | 65 W/m² | - |
| 1778109858 | 8.89° C | 99% | 1065 hPa | 0 mm | - | 76 W/m² | - |
| 1778109554 | 8.89° C | 99% | 1065.1 hPa | 0 mm | - | 75 W/m² | - |
| 1778109252 | 8.89° C | 99% | 1065.2 hPa | 0 mm | - | 53 W/m² | - |
| 1778108949 | 8.89° C | 99% | 1065.3 hPa | 0 mm | - | 50 W/m² | - |
| 1778108645 | 8.89° C | 99% | 1065.2 hPa | 0 mm | - | 70 W/m² | - |
| 1778108342 | 8.33° C | 99% | 1065 hPa | 0 mm | - | 79 W/m² | - |
| 1778108039 | 8.33° C | 99% | 1064.7 hPa | 0 mm | - | 84 W/m² | - |
| 1778107736 | 8.33° C | 99% | 1064.5 hPa | 0 mm | - | 105 W/m² | - |
| 1778107433 | 8.33° C | 99% | 1064.1 hPa | 0 mm | - | 98 W/m² | - |
| 1778107129 | 8.89° C | 99% | 1064.5 hPa | 0 mm | - | 98 W/m² | - |
| 1778106825 | 8.33° C | 99% | 1064.2 hPa | 0 mm | - | 104 W/m² | - |
| 1778106522 | 8.33° C | 99% | 1064.1 hPa | 0 mm | - | 81 W/m² | - |
| 1778106217 | 8.33° C | 99% | 1064.2 hPa | 0 mm | - | 61 W/m² | - |
| 1778105916 | 8.33° C | 99% | 1064.2 hPa | 0 mm | - | 68 W/m² | - |
| 1778105613 | 8.33° C | 99% | 1064 hPa | 0 mm | - | 72 W/m² | - |
| 1778105311 | 8.33° C | 99% | 1063.9 hPa | 0 mm | - | 97 W/m² | - |
* Rain latest hour (hover to see other rain measurements)
** Current wind speed in m/s (hover to see current wind gust speed)